FLORIPASAT-1

Last updated on Mon Jan 20 2020 00:02:04 GMT+0000 (Coordinated Universal Time)

1 44885U 19093G 20019.50222628 .00000172 00000-0 28464-4 0 9998 2 44885 97.9735 96.4827 0014961 170.1151 190.0358 14.81954686 4499

Satellite not in orbit

FLORIPASAT-1